Tracking 25710 objects as of 5-Jul-2022
HD Live streaming from Space Station
objects crossing your sky now

FENGYUN 1C DEB

Track FENGYUN 1C DEB now!
10-day predictions


NORAD ID: 47100
Int'l Code: 1999-025FBY
Perigee: 718.6 km
Apogee: 909.8 km
Inclination: 99.0 °
Period: 101.0 minutes
Semi major axis: 7185 km
RCS: Unknown
Launch date: May 10, 1999
Source: People's Republic of China (PRC)
Launch site: Taiyaun Space Center, China (TSC)

Note: This is SATELLITE DEBRIS
aabbcc
Your satellite tracking list
Your tracking list is empty




NASA's NSSDC Master Catalog

Two Line Element Set (TLE):
1 47100U 99025FBY 22185.84073069  .00000999  00000-0  40351-3 0  9995
2 47100  98.9517 295.7663 0133066  82.1178 279.5080 14.25415791 87282
Source of the keplerian elements: AFSPC